Location: 22
(39.7117°N, 89.5929°W)
Time: 08:11:19
(UTC-05:00)

S-56A Canister/Altair - Pass Details

Date: 09 February 2023
Orbit: 638 x 2493 km, 38.9° (Epoch: 25 March)

Event Time Altitude Azimuth Distance (km) Brightness Sun altitude
Rises 10:24:10 0° 260° (W) 2,986 10.4 30.1°
Reaches altitude 10° 10:26:29 10° 259° (W) 2,027 9.6 30.3°
Maximum altitude 10:30:56 79° 174° (S) 667 8.0 30.8°
Drops below altitude 10° 10:35:52 10° 88° (E) 2,242 10.3 31.2°
Sets 10:38:33 0° 87° (E) 3,336 11.1 31.4°
